User: anonymous   Login
Location: Caltech
(34.1382°N, 118.1253°W)
Time: 16:14:25
(UTC-08:00)
Language:

SO-50 - Orbit

View from above orbital plane
View from above orbital plane
View from above satellite
View from above satellite

Ground track
Ground track

The orbit data is extracted from the following two-line orbital elements,

1 27607U 02058C   16036.08391176  .00000423  00000-0  80538-4 0  9995
2 27607  64.5537 207.4962 0078891 243.8720 115.4251 14.75040495705632
Epoch (UTC): 05 February 2016 02:00:49
Eccentricity: 0.0078891
inclination: 64.5537°
perigee height: 589 km
apogee height: 700 km
right ascension of ascending node: 207.4962°
argument of perigee: 243.8720°
revolutions per day: 14.75040495
mean anomaly at epoch: 115.4251°
orbit number at epoch: 70563

The dashed part of the orbit path shows where the satellite is in the earth's shadow,  

DLR